sat.trackr.live / text

‹ back to catalog

STARLINK-1453

NORAD 45670 · 2020-035P

PAYLOAD ACTIVE UNKNOWN

§ Identity

Operator
Country
US
Launch date
2020-06-04
Launch site
AFETR
Launch vehicle
Mass (kg)
RCS (m²)

Purposes: comms

External: N2YO · Heavens-Above · Gunter

§ Orbital elements

Epoch: 2026-05-25T02:28:51.795264Z

Period
91.91 min
Inclination
53.0415°
Eccentricity
0.0002396
Mean motion
15.66714207 rev/d
Perigee alt
366.7 km
Apogee alt
369.9 km
Semi-major
6,746.5 km
B*
5.2487e-4
RAAN
0.6846°
Arg perigee
148.7776°
Mean anomaly
211.3382°
Rev number
33,130

§ Raw data

STARLINK-14531 45670U 20035P   26145.10337726  .00056076  00000+0  52487-3 0  99912 45670  53.0415   0.6846 0002396 148.7776 211.3382 15.66714207331305

JSON: /api/v1/satellites/45670 · /tle

For live sub-satellite position, see the globe view (requires WebGL).

§ Visibility from observer

Set your observer location to see the next 7 days of passes ≥ 10°. The values pass through the URL so the page stays shareable.

No JS? Fill the form by hand. The geolocation button needs JavaScript.